Temperature
6 8 8 7 7 8 8 8 9 9 8 8 9 10 11 11 10 10 10 10 10 9 9 9 9 9 9 9 9 10 10 10 10 10 10 10 10 10 10 10 10 10 10 10
7 7 7 7 7 7 7 7 8 8 8 8 8 9 10 10 10 9 9 9 9 9 9 9 8 8 9 9 9 10 10 9 10 10 10 10 10 9 9 9 9 9 9 9
7 7 6 6 6 6 7 7 8 7 7 7 7 9 10 10 9 9 9 8 8 8 8 8 8 8 8 8 9 9 9 9 9 9 9 9 9 9 9 9 9 9 9 9
6 6 6 6 6 6 7 7 7 6 7 8 7 9 11 10 10 9 9 9 8 8 8 8 7 8 8 8 8 8 9 9 9 9 9 9 9 9 9 9 9 9 9 9
6 6 6 6 6 6 7 6 6 6 6 6 7 7 10 9 9 9 9 8 8 7 7 7 7 7 7 7 7 8 8 8 8 8 8 8 8 8 8 9 8 8 8 8
6 6 6 6 6 6 6 6 6 6 6 6 7 7 10 10 9 9 9 8 7 7 6 7 7 7 7 7 7 7 8 8 8 8 8 8 8 8 8 8 8 8 8 8
6 6 5 5 5 5 6 6 7 7 7 8 7 7 9 9 8 8 7 7 6 6 6 6 6 6 6 6 6 7 7 7 7 7 7 8 8 8 8 8 8 8 8 8
6 6 5 5 5 5 5 6 7 7 8 8 6 7 9 8 7 6 5 5 5 5 5 5 5 5 5 6 6 6 6 6 7 7 7 7 7 7 7 7 7 7 7 7
6 6 5 5 5 5 5 5 5 6 5 6 8 8 8 7 7 6 5 5 5 4 4 4 4 4 5 5 5 6 6 6 6 7 7 7 7 7 7 7 7 7 7 7
4 4 5 4 4 4 5 5 5 5 6 7 8 8 9 7 7 6 5 5 4 3 3 3 4 4 4 4 5 5 5 5 6 6 6 6 6 6 6 7 7 7 7 7
3 4 4 4 4 5 4 4 4 5 5 7 8 9 7 6 6 5 5 4 3 3 3 3 3 3 4 4 4 4 5 5 5 5 6 6 6 6 6 6 6 6 6 6
3 3 4 4 4 3 4 4 4 5 5 5 6 7 6 5 5 4 4 3 2 2 2 2 2 3 3 3 3 4 4 4 4 5 5 5 6 6 6 6 6 6 6 6
2 3 4 5 4 3 3 3 3 3 4 4 5 7 5 4 4 3 3 2 2 1 1 2 2 2 2 3 3 3 3 4 4 4 4 5 5 5 5 5 5 5 5 5
2 2 3 5 5 4 3 3 2 3 4 4 4 5 5 4 4 3 2 1 1 1 1 1 1 1 2 2 2 2 3 3 3 4 4 4 4 5 5 5 5 5 5 5
2 2 2 2 2 2 2 2 2 2 3 4 4 4 4 4 3 2 1 1 0 0 0 0 0 0 1 1 2 2 2 2 3 3 3 3 4 4 4 4 4 4 4 4
-0 1 0 1 2 1 1 2 2 2 2 2 2 3 3 2 1 1 1 0 -0 -0 -0 -0 -0 0 0 1 1 1 1 2 2 2 2 3 3 3 3 3 3 4 4 4
-0 -0 1 3 1 1 3 2 1 1 1 2 2 3 2 1 1 0 -0 -1 -1 -1 -1 -1 -1 -1 -1 -0 0 0 1 1 1 2 2 2 2 2 3 3 3 3 3 3
-1 -0 0 1 1 3 4 1 1 1 1 1 1 1 1 0 -1 -1 -1 -1 -1 -1 -1 -1 -1 -1 -1 -1 -0 -0 -0 0 1 1 1 1 2 2 2 2 2 2 2 3
-2 -1 0 1 2 3 3 1 0 0 1 1 0 0 -0 -1 -1 -0 -1 -1 -1 -2 -2 -2 -2 -1 -1 -1 -1 -1 -1 -0 -0 -0 0 1 1 1 1 1 2 2 2 2
-3 -2 -0 0 2 3 3 1 -1 0 2 1 -1 -1 -1 -1 1 1 -1 -2 -2 -2 -2 -2 -2 -2 -2 -1 -1 -1 -1 -1 -1 -0 -0 -0 -0 0 1 1 1 1 1 1
-2 -1 -1 0 1 3 1 -1 -0 2 2 -0 -1 -2 -2 -2 -1 -2 -2 -2 -2 -2 -2 -2 -2 -2 -2 -2 -2 -2 -1 -1 -1 -1 -1 -1 -1 -0 -0 0 0 0 1 1
-0 -0 -1 -0 1 2 -0 -1 0 1 -1 -2 -2 -2 -3 -3 -3 -3 -3 -2 -2 -2 -2 -2 -2 -2 -2 -2 -2 -2 -2 -2 -2 -1 -1 -1 -1 -1 -1 -0 -0 -0 -0 -0
-1 -0 0 0 1 -0 -2 -2 -2 -2 -2 -2 -2 -3 -3 -3 -3 -3 -3 -3 -3 -2 -2 -2 -3 -3 -2 -2 -2 -3 -2 -2 -2 -2 -2 -1 -1 -1 -1 -1 -1 -0 -1 -1
-2 -3 -2 -2 -1 -1 -2 -2 -2 -3 -3 -3 -3 -3 -3 -3 -3 -3 -3 -3 -3 -3 -3 -3 -3 -3 -3 -3 -3 -3 -3 -3 -2 -2 -2 -2 -2 -2 -1 -1 -1 -1 -1 -1
-2 -3 -3 -2 -2 -2 -2 -2 -2 -3 -3 -3 -3 -3 -3 -3 -3 -3 -3 -3 -3 -3 -3 -3 -3 -3 -3 -3 -3 -3 -3 -3 -3 -3 -2 -2 -2 -2 -2 -2 -2 -1 -1 -1
-3 -3 -2 -1 -1 -2 -2 -3 -3 -3 -3 -3 -3 -3 -3 -3 -4 -4 -4 -3 -3 -3 -3 -3 -3 -3 -4 -3 -3 -3 -3 -3 -3 -3 -3 -3 -2 -2 -2 -2 -2 -2 -2 -2
Wind_Speed
2 3 5 6 7 6 6 7 9 9 7 8 13 17 17 13 13 14 13 12 12 12 11 9 8 8 8 8 8 8 7 8 8 7 8 8 8 8 8 8 10 11 11 11
4 6 6 5 5 6 7 9 9 7 6 7 12 18 16 13 13 13 12 12 12 11 10 9 8 8 8 9 8 8 8 8 9 8 8 8 8 7 7 7 9 11 11 11
6 3 4 5 6 6 8 10 9 8 8 7 9 12 10 8 8 9 10 10 10 10 10 9 9 9 9 9 8 8 8 8 9 8 7 6 6 5 6 7 7 9 11 11
4 4 4 5 6 6 7 6 7 8 7 5 4 7 9 7 7 8 8 8 8 8 8 9 9 9 9 9 7 8 7 8 8 8 9 10 9 9 8 8 7 8 10 11
3 3 4 6 6 6 5 4 6 7 7 7 6 7 8 5 7 7 7 7 7 7 7 8 9 9 8 7 6 6 7 8 8 9 10 10 10 8 7 7 8 8 8 9
4 3 4 4 2 4 3 3 3 4 4 7 7 8 8 5 5 5 6 6 7 7 7 8 8 7 7 6 5 5 6 7 8 9 9 10 11 10 9 9 8 7 6 7
3 4 3 3 2 3 3 2 2 3 4 6 3 7 8 4 4 5 6 6 7 7 6 6 7 6 5 5 5 5 6 7 7 8 9 9 10 11 11 10 9 8 7 6
3 4 5 4 4 4 5 4 3 4 5 4 4 8 5 2 4 5 5 5 6 6 6 6 5 6 5 5 4 4 6 7 7 8 8 8 9 8 8 9 8 8 7 7
4 3 2 3 3 4 4 5 3 3 4 6 6 6 6 3 4 4 4 5 5 6 6 6 5 5 5 5 4 4 5 6 6 7 7 7 8 8 8 8 9 7 7 7
2 4 3 2 3 3 3 3 3 4 4 6 7 7 5 4 5 4 4 5 6 6 7 6 6 6 5 4 4 4 5 6 5 5 5 5 7 7 7 8 8 8 8 8
3 3 2 3 6 6 5 4 5 4 4 5 6 4 2 4 4 5 5 6 7 7 8 6 6 6 5 5 4 3 4 3 3 4 4 5 6 6 7 7 8 8 8 9
2 2 4 5 2 2 5 5 5 4 4 4 6 6 2 3 4 4 5 6 7 8 8 7 6 6 5 5 5 4 3 3 2 3 3 4 4 5 6 6 6 7 7 8
2 3 3 2 3 2 3 4 5 4 4 6 6 6 1 3 5 5 5 6 8 8 8 7 6 6 5 5 5 5 4 4 3 2 3 3 4 5 6 6 6 6 7 7
2 3 6 6 3 2 5 6 7 6 6 7 10 11 8 6 7 7 7 7 7 8 8 7 7 6 6 6 5 5 5 4 3 2 2 3 3 4 5 5 6 6 7 7
2 4 5 8 8 7 8 10 9 11 11 9 9 10 11 9 8 8 7 7 7 7 8 7 7 7 7 7 6 6 5 5 3 2 2 3 3 3 5 5 5 6 6 6
0 3 2 5 5 5 8 10 10 11 11 12 13 13 9 8 7 7 7 7 7 7 8 7 7 8 8 8 7 6 6 5 4 3 3 3 2 3 4 5 5 5 6 6
2 2 2 4 4 5 7 6 7 5 7 7 9 8 6 6 7 7 7 7 7 7 7 8 7 7 7 8 7 7 6 5 4 4 3 3 3 3 3 3 4 5 5 5
3 3 2 3 3 5 1 1 3 5 6 6 7 6 6 7 8 7 7 7 7 7 8 8 8 8 8 7 7 6 5 4 4 4 4 4 3 3 2 3 3 4 4 4
4 4 3 3 4 7 3 1 1 3 5 4 6 7 7 6 6 5 4 5 7 8 8 8 7 7 7 7 6 5 4 4 4 4 4 4 3 3 3 3 3 3 3 3
2 3 3 3 4 5 1 1 2 3 4 1 3 6 6 5 4 4 6 8 8 8 7 7 7 7 6 6 5 4 4 4 4 4 4 4 4 4 4 3 3 2 2 3
2 3 5 6 5 5 2 2 1 2 3 4 4 5 4 4 5 6 8 8 8 8 7 7 6 6 6 6 4 4 4 4 5 4 4 4 4 4 4 3 2 2 2 1
4 4 4 4 5 5 1 0 2 3 4 4 5 5 5 6 7 7 7 7 7 7 7 7 6 6 6 5 4 4 5 5 4 4 4 4 4 3 2 2 2 1 1 2
5 4 3 5 4 2 1 3 4 4 5 5 5 5 5 6 7 7 7 7 7 7 7 6 6 6 6 6 4 5 5 5 3 3 4 4 3 3 2 1 1 1 1 2
3 2 3 4 6 5 5 5 5 6 6 7 7 6 6 6 7 7 6 6 6 7 7 6 6 5 6 6 5 5 5 4 3 3 3 3 2 2 1 1 1 2 2 2
3 3 3 5 6 6 4 4 5 6 6 7 7 6 6 6 6 6 6 7 6 6 6 6 5 6 6 6 6 6 5 4 4 3 3 2 2 2 1 1 1 2 2 3
4 5 4 5 3 4 6 5 5 5 6 6 6 6 5 5 6 6 6 6 6 6 6 6 6 6 6 6 6 6 5 3 3 3 2 2 2 1 1 1 1 1 2 3
Wind_Direction
191 197 212 214 221 240 245 249 259 267 283 273 261 267 270 263 256 257 259 261 260 259 260 257 254 251 245 241 235 232 232 230 214 204 197 198 203 204 205 205 204 204 201 198
191 219 227 220 219 231 241 251 263 275 279 277 274 274 270 259 251 253 259 261 261 263 263 260 257 252 246 242 236 233 232 232 218 211 204 202 202 207 207 205 207 208 206 201
216 214 200 208 217 233 244 245 259 275 298 272 281 275 253 249 246 251 256 258 259 260 264 265 260 254 248 243 240 233 231 234 224 213 204 198 197 199 204 206 210 212 210 205
235 231 209 213 226 231 250 243 257 269 278 275 277 281 271 258 256 257 260 258 259 261 264 265 262 257 252 247 246 241 234 230 223 212 202 199 204 207 209 205 207 210 212 209
234 220 225 230 240 231 244 267 260 261 261 272 243 255 271 261 259 262 264 269 274 276 275 273 267 261 259 255 246 239 235 228 220 213 205 205 211 212 208 204 205 208 210 209
253 238 239 242 246 225 231 265 264 237 242 254 231 233 266 246 255 272 275 279 286 291 286 279 276 270 264 260 251 241 234 229 218 210 207 209 211 208 205 205 203 205 206 208
250 223 212 215 217 198 212 241 263 241 232 246 205 239 257 263 270 284 289 297 307 310 303 298 295 286 276 266 256 244 235 234 221 212 211 212 213 210 208 208 206 204 203 207
241 236 202 209 226 222 215 223 245 262 263 279 236 242 263 296 291 301 302 303 314 314 312 308 303 295 286 274 264 256 244 237 224 218 216 215 214 212 211 212 211 211 207 208
238 248 199 228 238 216 201 216 248 267 277 274 251 258 277 274 284 307 322 330 332 330 332 327 320 314 301 287 271 260 257 247 225 219 218 217 214 211 209 212 214 215 211 205
249 260 255 224 208 213 235 201 205 224 255 269 270 262 269 279 288 309 321 331 334 334 335 335 334 330 321 308 293 279 264 249 232 221 217 218 217 214 212 212 212 215 211 205
249 243 244 212 213 213 194 201 220 230 248 263 279 277 338 299 302 297 309 329 336 338 338 337 340 340 342 332 320 296 279 269 243 231 224 219 216 213 213 213 213 210 209 207
227 243 248 240 244 265 230 225 212 237 245 244 271 280 12 318 321 324 325 333 336 335 335 336 341 347 347 346 340 333 325 307 271 246 238 230 224 214 215 215 213 208 206 206
195 216 255 226 185 186 227 230 230 246 256 246 252 268 46 344 334 338 332 334 334 334 337 340 347 351 348 346 345 341 336 333 315 276 247 240 231 220 215 214 211 210 207 205
229 230 238 254 286 256 251 243 231 225 242 252 249 270 291 310 316 322 325 326 331 334 338 341 347 351 350 347 348 345 337 333 326 308 268 248 238 226 216 212 209 208 206 204
210 245 248 268 277 273 265 260 241 228 237 250 266 275 287 302 305 311 316 319 328 334 338 340 344 343 346 346 345 344 336 335 328 316 302 271 251 236 221 214 210 208 208 206
263 241 260 273 271 272 273 266 248 241 243 251 269 279 295 308 309 310 314 314 319 323 328 334 339 340 340 339 337 336 334 333 331 328 318 311 293 258 231 218 214 208 207 204
209 200 240 267 311 295 267 247 223 231 238 241 254 276 313 312 312 311 311 310 307 313 321 327 330 330 329 329 331 329 326 329 339 337 325 311 297 279 259 239 224 213 209 203
200 204 240 279 301 248 293 69 219 238 257 243 260 292 309 308 309 303 298 301 305 311 315 320 322 323 322 323 324 324 324 332 339 333 326 316 308 287 269 252 240 229 216 207
211 200 220 238 261 273 275 262 262 250 275 258 262 286 306 319 312 303 313 315 312 312 311 312 315 314 316 319 320 323 327 333 332 326 319 314 306 294 273 258 250 244 228 220
168 193 220 230 253 259 314 10 310 261 273 338 291 294 306 315 309 314 329 322 317 317 315 315 316 317 317 317 317 319 321 319 315 310 309 309 302 290 272 261 262 256 236 229
180 196 219 232 246 268 322 325 265 251 313 338 310 299 290 282 288 300 306 309 313 315 317 317 318 318 315 314 316 317 314 303 302 303 304 301 296 283 269 262 260 248 235 219
203 199 206 209 231 261 22 102 233 301 325 316 310 304 295 293 298 299 302 307 313 317 322 325 324 324 325 325 322 315 308 304 300 298 296 293 294 287 272 254 251 240 210 200
219 222 225 216 240 327 261 266 292 310 303 307 306 305 296 298 303 305 308 310 314 318 323 327 323 324 327 328 321 310 308 309 298 292 290 287 290 285 270 247 237 226 208 206
231 226 233 258 265 281 282 277 287 293 290 295 296 295 290 292 298 303 304 308 313 317 321 323 325 325 323 324 320 311 307 303 292 285 290 290 290 284 274 248 227 219 215 213
247 195 226 255 281 299 276 281 302 304 299 298 300 296 288 287 293 298 301 305 309 313 316 319 321 321 322 323 321 317 306 296 292 295 297 294 287 274 270 265 248 230 229 226
213 211 221 254 274 275 294 315 313 307 305 304 304 309 307 297 295 300 302 304 306 310 315 318 319 320 322 325 325 328 320 302 295 299 302 297 289 280 278 282 285 268 245 253
Height
1489 1489 1486 1486 1488 1486 1485 1484 1483 1482 1484 1483 1476 1469 1466 1468 1469 1468 1467 1466 1466 1465 1466 1466 1466 1466 1467 1467 1468 1469 1470 1471 1473 1474 1476 1479 1482 1484 1486 1488 1490 1492 1494 1496
1488 1486 1486 1488 1488 1488 1487 1485 1482 1481 1483 1481 1474 1466 1461 1462 1462 1462 1462 1461 1461 1461 1461 1461 1461 1461 1461 1462 1462 1463 1465 1466 1468 1469 1471 1474 1477 1479 1481 1484 1486 1488 1490 1492
1482 1484 1486 1487 1486 1486 1485 1483 1480 1481 1481 1479 1475 1459 1454 1455 1457 1458 1458 1457 1457 1457 1456 1456 1456 1456 1457 1457 1457 1458 1460 1461 1463 1464 1467 1470 1472 1474 1476 1478 1480 1483 1485 1487
1484 1485 1485 1485 1484 1484 1480 1481 1483 1482 1481 1474 1476 1461 1448 1450 1451 1452 1453 1453 1452 1452 1452 1451 1451 1452 1452 1452 1452 1453 1454 1456 1457 1459 1461 1463 1465 1467 1470 1473 1475 1478 1480 1482
1482 1484 1484 1482 1482 1483 1481 1482 1482 1481 1481 1479 1473 1471 1446 1448 1448 1447 1449 1449 1449 1449 1448 1447 1447 1447 1447 1448 1448 1448 1450 1451 1452 1454 1455 1458 1461 1463 1466 1468 1471 1473 1475 1477
1483 1484 1484 1482 1483 1483 1483 1482 1481 1480 1479 1474 1465 1464 1444 1442 1443 1444 1445 1446 1446 1446 1445 1444 1443 1443 1443 1443 1443 1443 1445 1446 1447 1449 1451 1453 1456 1458 1460 1463 1465 1468 1470 1472
1480 1481 1482 1483 1481 1482 1482 1479 1474 1471 1469 1458 1463 1460 1445 1441 1444 1445 1445 1445 1445 1444 1442 1441 1440 1439 1439 1439 1439 1439 1440 1441 1442 1444 1446 1448 1450 1453 1455 1458 1460 1462 1464 1466
1477 1474 1479 1481 1479 1478 1480 1478 1473 1466 1457 1451 1461 1453 1440 1443 1445 1446 1445 1444 1443 1442 1440 1439 1437 1436 1435 1435 1435 1435 1436 1437 1438 1440 1441 1443 1446 1448 1450 1453 1455 1457 1459 1461
1475 1474 1478 1480 1480 1479 1478 1476 1476 1474 1471 1464 1447 1445 1441 1443 1444 1444 1444 1443 1442 1440 1438 1437 1435 1433 1432 1432 1431 1432 1432 1433 1434 1435 1437 1439 1441 1443 1445 1447 1450 1452 1454 1457
1480 1479 1476 1478 1480 1479 1478 1476 1478 1473 1464 1452 1441 1440 1436 1439 1440 1442 1443 1442 1441 1439 1437 1435 1433 1431 1430 1429 1429 1429 1429 1430 1430 1431 1433 1435 1437 1439 1441 1443 1445 1447 1449 1451
1482 1479 1476 1477 1476 1472 1477 1478 1474 1469 1466 1456 1443 1436 1440 1441 1442 1443 1442 1442 1441 1439 1436 1434 1432 1430 1428 1427 1427 1427 1426 1426 1427 1428 1429 1431 1432 1434 1436 1438 1440 1442 1444 1446
1481 1479 1474 1472 1474 1476 1473 1471 1471 1467 1464 1463 1454 1444 1444 1445 1444 1444 1443 1443 1441 1439 1436 1434 1432 1429 1428 1426 1425 1424 1424 1424 1424 1425 1426 1427 1428 1430 1431 1433 1435 1437 1439 1442
1481 1479 1471 1465 1473 1476 1474 1472 1472 1472 1467 1461 1454 1444 1446 1446 1445 1444 1444 1442 1441 1438 1436 1433 1431 1429 1428 1426 1424 1423 1422 1422 1422 1422 1423 1424 1424 1425 1427 1429 1430 1433 1435 1437
1479 1477 1472 1461 1459 1466 1469 1470 1471 1470 1464 1456 1451 1443 1443 1445 1445 1445 1444 1443 1441 1438 1436 1433 1431 1429 1427 1425 1423 1422 1421 1420 1420 1420 1420 1420 1421 1422 1423 1425 1427 1429 1431 1433
1478 1475 1474 1470 1469 1469 1467 1466 1466 1467 1460 1456 1447 1447 1444 1445 1446 1445 1444 1442 1440 1437 1435 1433 1431 1428 1426 1424 1422 1421 1420 1419 1418 1418 1417 1417 1418 1419 1420 1422 1423 1425 1427 1429
1479 1476 1476 1471 1468 1467 1466 1462 1462 1461 1459 1456 1452 1449 1446 1447 1446 1445 1443 1441 1439 1437 1435 1433 1430 1428 1426 1424 1422 1420 1418 1417 1416 1415 1415 1415 1415 1416 1417 1419 1420 1421 1423 1424
1478 1478 1474 1463 1467 1465 1455 1455 1457 1457 1455 1453 1449 1447 1447 1447 1445 1444 1442 1440 1438 1436 1434 1432 1430 1427 1425 1423 1421 1418 1416 1415 1414 1413 1413 1413 1413 1413 1414 1416 1417 1418 1419 1421
1479 1477 1474 1468 1467 1457 1450 1455 1454 1454 1452 1451 1449 1448 1448 1447 1445 1443 1441 1439 1437 1435 1433 1430 1428 1426 1423 1421 1419 1417 1415 1414 1413 1412 1411 1411 1411 1411 1411 1412 1413 1415 1416 1417
1477 1476 1473 1469 1459 1449 1449 1454 1455 1453 1450 1449 1448 1447 1447 1446 1442 1440 1439 1438 1436 1433 1431 1428 1426 1423 1421 1419 1417 1415 1413 1412 1411 1410 1410 1409 1409 1408 1409 1410 1410 1412 1413 1414
1477 1477 1473 1468 1459 1448 1447 1453 1453 1454 1445 1447 1447 1446 1446 1444 1440 1438 1438 1436 1433 1431 1429 1426 1424 1421 1419 1417 1415 1413 1411 1411 1410 1409 1408 1408 1407 1407 1407 1407 1408 1409 1410 1411
1474 1473 1471 1466 1460 1448 1452 1453 1453 1449 1445 1447 1446 1445 1444 1443 1442 1440 1436 1434 1431 1429 1427 1424 1422 1419 1417 1414 1413 1411 1409 1409 1408 1407 1407 1406 1406 1405 1405 1406 1406 1407 1407 1408
1466 1465 1467 1465 1459 1452 1453 1453 1452 1449 1448 1446 1445 1444 1443 1441 1439 1436 1434 1431 1429 1426 1424 1422 1419 1416 1414 1412 1411 1409 1407 1407 1406 1405 1405 1404 1404 1403 1403 1403 1404 1404 1405 1406
1464 1462 1459 1459 1455 1453 1453 1452 1451 1449 1447 1445 1444 1442 1441 1438 1436 1434 1431 1429 1427 1424 1422 1420 1417 1415 1412 1411 1409 1407 1405 1405 1404 1403 1403 1402 1402 1401 1401 1401 1402 1402 1403 1404
1463 1464 1462 1459 1452 1452 1451 1450 1449 1447 1446 1444 1442 1440 1438 1436 1434 1432 1429 1427 1425 1423 1420 1418 1416 1413 1411 1409 1407 1405 1404 1403 1402 1401 1401 1400 1399 1399 1399 1399 1400 1400 1400 1401
1459 1462 1460 1457 1452 1450 1448 1447 1446 1445 1443 1441 1439 1437 1436 1434 1432 1430 1427 1425 1423 1421 1419 1417 1414 1412 1410 1407 1405 1403 1401 1400 1400 1399 1398 1398 1398 1398 1397 1397 1398 1398 1399 1399
1457 1457 1455 1449 1449 1450 1447 1446 1444 1442 1440 1438 1436 1434 1433 1432 1429 1427 1425 1423 1421 1419 1417 1415 1412 1410 1408 1406 1403 1401 1400 1399 1398 1397 1396 1396 1396 1396 1396 1396 1396 1396 1397 1397